Погода в Макове

Украина / Хмельницкая область     48°47′16″N   26°41′40″E
темп.,
°C
ветер,
м/с
пор.,
м/с
влажн.,
%
обл.,
%
осадки,
мм/ч
давл.,
гПа
погр.,
м
27 июля, вт
вт2700:00+18вюв33765 0.1 101837
03:00+17юв357751 0.1 101764
06:00+17ююв3677100 0.0 1017101
09:00+22ююв5866100 0.2 1017254
12:00+23ю456783 0.3 1017293
15:00+28ююв565411 0.3 1016711
18:00+26зюз4867100 0.4 1017883
21:00+21ююв34815 1.3 101647
28 июля, ср
ср2800:00+20ю35850 0.2 101665
03:00+20зюз22835 0.2 101524
06:00+19зсз34815 0.0 101558
09:00+24сз34735 0.0 1016276
12:00+29з23525 0.0 1015876
15:00+31ююз344385 0.0 10141679
18:00+30ю22501 0.0 1012532
21:00+26юв356214 0.0 101291
29 июля, чт
чт2900:00+21юз13694 0.2 101245
03:00+19ююв36780 0.2 1012105
06:00+19в11800 0.0 101111
09:00+24сз34625 0.0 1012296
12:00+28ссз445597 0.0 10121016
15:00+30сз444812 0.0 10121805
18:00+29сз345013 0.0 10111708
21:00+23сз597291 0.6 1012244
30 июля, пт
пт3000:00+20ссз37921 2.2 1013149
03:00+18ссз22910 2.2 101424
06:00+17ссз22920 0.0 101328
09:00+23с11745 0.0 1013288
12:00+27ю21540 0.0 10121082
15:00+29ю32440 0.0 10111380
18:00+29юв44473 0.0 10091083
21:00+25вюв226021 0.0 100932
31 июля, сб
сб3100:00+20юз3482100 0.5 101184
03:00+19сз2291100 0.8 100929
06:00+18с23945 0.0 101042
09:00+22св22735 0.0 1010382
12:00+28ссз11565 0.0 1009920
15:00+30сз114727 0.0 10091467
18:00+30св11478 0.0 10081673
21:00+23зюз3381100 3.1 100855